Location: ??
(35.4032°N, 139.3073°E)
Time: 14:37:33
(UTC+00:00)

Resurs 1-4 Rocket - Visible Passes

Search period start: 12 July 2024 00:00
Search period end: 22 July 2024 00:00
Orbit: 799 x 813 km, 98.7° (Epoch: 11 July)

Date Brightness Start Highest point End Pass type
(mag) Time Alt. Az. Time Alt. Az. Time Alt. Az.
12 Jul 2.0 16:33:07 10° NNE 16:38:28 76° ESE 16:38:39 75° SE visible
12 Jul 4.2 18:15:28 10° NW 18:17:32 12° WNW 18:19:36 10° W visible
13 Jul 2.9 16:08:28 10° NNE 16:13:24 43° E 16:13:24 43° E visible
13 Jul 3.6 17:49:03 10° NNW 17:52:57 21° WNW 17:54:27 19° W visible
14 Jul 3.7 15:44:11 10° NE 15:48:08 24° E 15:48:08 24° E visible
14 Jul 2.9 17:23:28 10° N 17:28:16 36° WNW 17:29:11 33° W visible
15 Jul 4.4 15:20:45 10° ENE 15:22:52 14° E 15:22:52 14° E visible
15 Jul 2.1 16:58:15 10° N 17:03:30 62° WNW 17:03:54 60° W visible
16 Jul 2.1 16:33:18 10° NNE 16:38:38 76° ESE 16:38:39 76° ESE visible
16 Jul 4.2 18:15:37 10° NW 18:17:42 12° WNW 18:19:42 10° W visible
17 Jul 2.9 16:08:37 10° NNE 16:13:23 42° E 16:13:23 42° E visible
17 Jul 3.6 17:49:12 10° NNW 17:53:07 21° WNW 17:54:26 19° W visible
18 Jul 3.8 15:44:21 10° NE 15:48:06 24° E 15:48:06 24° E visible
18 Jul 2.9 17:23:37 10° N 17:28:26 36° WNW 17:29:10 34° W visible
19 Jul 4.4 15:20:54 10° ENE 15:22:50 13° E 15:22:50 13° E visible
19 Jul 2.1 16:58:24 10° N 17:03:39 62° WNW 17:03:53 61° W visible
20 Jul 2.1 16:33:27 10° NNE 16:38:36 75° E 16:38:36 75° E visible
20 Jul 4.1 18:15:46 10° NW 18:17:51 12° WNW 18:19:39 11° W visible
21 Jul 3.0 16:08:47 10° NNE 16:13:20 42° E 16:13:20 42° E visible
21 Jul 3.6 17:49:21 10° NNW 17:53:16 21° WNW 17:54:23 20° W visible
